Date,TemperatureHighF,TemperatureAvgF,TemperatureLowF,DewpointHighF,DewpointAvgF,DewpointLowF,HumidityHigh,HumidityAvg,HumidityLow,PressureMaxIn,PressureMinIn,WindSpeedMaxMPH,WindSpeedAvgMPH,GustSpeedMaxMPH,PrecipitationSumIn
2012-1-1,50,43,31,42,38,29,95,84,65,30.07,29.57,20,2,22,0.02
2012-1-2,45,36,28,42,26,18,90,66,45,29.77,29.59,23,4,27,0.01
2012-1-3,28,18,8,21,7,-4,76,61,49,30.19,29.77,20,4,22,0.00
2012-1-4,22,14,6,13,6,-3,80,67,62,30.23,29.91,7,0,11,0.00
2012-1-5,35,27,22,27,18,13,80,70,59,29.94,29.79,19,1,29,0.00
2012-1-6,46,34,26,30,25,20,90,72,51,29.91,29.68,11,1,12,0.00
2012-1-7,45,36,27,35,30,25,92,81,68,29.96,29.66,13,1,21,0.00
2012-1-8,40,35,24,32,24,17,75,64,53,30.33,29.96,24,3,24,0.00
2012-1-9,38,30,22,24,20,16,92,67,49,30.34,29.92,11,1,12,0.00
2012-1-10,43,36,30,32,26,19,74,67,54,29.99,29.81,14,1,16,0.00
2012-1-11,41,32,27,30,24,20,85,72,57,30.12,29.93,6,0,7,0.00
2012-1-12,38,34,33,33,32,29,94,90,77,29.93,29.48,10,1,11,0.23
2012-1-13,36,32,27,35,27,19,95,82,66,29.67,29.16,22,4,29,0.28
2012-1-14,30,22,10,22,14,0,79,70,60,30.13,29.67,24,5,24,0.00
2012-1-15,14,8,1,3,-1,-6,80,66,51,30.61,30.13,18,3,18,0.00
2012-1-16,31,16,1,25,8,-3,92,72,47,30.63,30.07,16,2,19,0.00
2012-1-17,43,35,29,41,32,25,94,91,84,30.07,29.39,16,2,21,0.42
2012-1-18,43,28,14,41,19,7,93,68,57,30.20,29.42,34,6,36,0.01
2012-1-19,30,20,8,25,12,5,90,75,46,30.27,29.90,15,1,17,0.00
2012-1-20,28,22,17,25,11,4,91,63,44,30.33,29.90,17,2,24,0.00
2012-1-21,19,15,6,14,10,3,86,78,55,30.40,30.16,6,0,8,0.00
2012-1-22,28,14,0,23,9,-4,90,78,60,30.58,30.40,5,0,6,0.04
2012-1-23,47,35,27,45,32,23,96,90,81,30.40,29.77,15,1,16,0.13
2012-1-24,46,40,35,45,37,29,100,87,76,30.12,29.77,14,2,17,0.00
2012-1-25,36,34,32,29,28,26,83,77,73,30.29,30.11,20,3,27,0.00
2012-1-26,34,32,27,31,29,24,93,89,83,30.24,29.84,5,0,7,0.15
2012-1-27,41,36,33,40,34,31,96,91,80,29.84,29.27,32,3,32,0.98
2012-1-28,43,38,31,33,30,23,86,71,59,30.00,29.78,16,2,20,0.98
2012-1-29,43,34,28,24,22,18,82,61,43,30.08,29.93,19,2,25,0.01
2012-1-30,34,30,24,29,21,18,85,71,59,30.27,29.90,25,2,25,0.01
2012-1-31,52,38,27,33,28,23,91,69,43,30.25,29.90,7,0,9,0.03
2012-2-1,59,46,41,48,37,33,91,72,61,30.04,29.75,26,3,29,0.06
2012-2-2,40,34,26,33,27,19,79,75,72,30.31,30.01,16,1,17,0.00
2012-2-3,40,30,19,28,22,15,88,72,52,30.47,30.29,15,1,20,0.00
2012-2-4,39,33,23,32,25,16,89,71,55,30.29,30.15,15,2,19,0.00
2012-2-5,35,25,17,20,17,12,85,71,51,30.23,30.12,9,1,12,0.00
2012-2-6,52,34,22,30,24,18,92,70,35,30.13,29.88,15,1,17,0.00
2012-2-7,44,36,24,32,27,16,79,68,55,30.30,29.94,10,2,17,0.00
2012-2-8,33,26,16,24,18,13,89,73,56,30.34,30.09,3,0,6,0.00
2012-2-9,43,32,23,25,22,19,86,68,41,30.13,30.04,16,2,16,0.00
2012-2-10,43,31,19,26,22,16,99,72,46,30.12,29.90,9,0,10,0.00
2012-2-11,39,30,18,30,23,11,92,77,60,29.90,29.65,13,2,15,0.00
2012-2-12,24,17,11,12,5,0,75,61,50,29.94,29.75,21,4,26,0.00
2012-2-13,40,27,18,26,19,11,92,74,47,30.00,29.86,22,1,23,0.01
2012-2-14,40,31,22,27,22,17,83,70,46,30.08,30.00,9,0,10,0.01
2012-2-15,43,37,32,35,30,26,89,79,67,30.29,30.05,14,1,17,0.00
2012-2-16,40,32,24,35,29,21,94,87,71,30.28,29.96,11,1,12,0.13
2012-2-17,46,39,32,37,31,23,95,76,43,30.01,29.93,19,2,21,0.04
2012-2-18,42,34,27,32,27,21,92,77,45,30.04,29.86,13,1,13,0.00
2012-2-19,41,32,25,30,24,21,92,74,51,30.14,30.02,12,1,16,0.00
2012-2-20,42,30,20,23,20,16,89,68,37,30.35,30.06,12,1,12,0.00
2012-2-21,41,32,18,34,23,16,92,71,45,30.37,29.78,17,2,18,0.00
2012-2-22,53,44,34,36,32,27,88,66,37,29.79,29.42,19,2,20,0.00
2012-2-23,46,40,30,37,32,26,87,72,54,29.79,29.36,21,2,26,0.00
2012-2-24,36,34,29,35,31,26,94,90,86,29.78,29.27,11,1,12,0.39
2012-2-25,40,35,28,35,25,16,94,68,55,29.98,29.26,30,8,34,0.02
2012-2-26,36,28,21,18,14,8,77,56,34,30.45,29.98,26,4,26,0.02
2012-2-27,50,34,18,32,24,15,90,68,47,30.44,30.00,20,2,29,0.00
2012-2-28,42,36,31,28,24,20,69,60,47,30.40,30.17,23,4,28,0.00
2012-2-29,33,31,30,31,27,22,93,83,66,30.39,29.84,5,0,7,0.02
2012-3-1,35,33,31,34,32,30,95,93,93,29.98,29.72,4,0,4,0.26
2012-3-2,39,34,30,33,30,27,93,86,75,30.08,29.76,12,2,16,0.52
2012-3-3,56,41,34,43,32,21,95,76,26,29.78,29.35,28,3,28,0.52
2012-3-4,41,34,26,28,23,19,85,65,46,29.73,29.56,18,2,18,0.00
2012-3-5,30,24,16,20,13,11,81,64,49,30.40,29.73,20,4,24,0.00
2012-3-6,40,26,14,21,14,6,92,63,28,30.61,30.40,13,1,14,0.00
2012-3-7,60,46,33,36,29,19,67,52,39,30.47,30.18,13,2,17,0.00
2012-3-8,68,57,39,51,44,34,85,64,51,30.19,29.67,27,4,33,0.05
2012-3-9,43,36,30,34,26,19,89,68,45,30.25,29.90,23,5,27,0.01
2012-3-10,40,30,24,24,20,16,85,66,48,30.52,30.25,21,3,24,0.00
2012-3-11,62,41,24,35,26,20,92,59,30,30.45,30.24,11,1,13,0.00
2012-3-12,70,49,31,44,34,27,88,62,27,30.30,30.05,7,0,7,0.00
2012-3-13,70,58,45,58,47,40,89,69,55,30.06,29.86,10,1,12,0.01
2012-3-14,60,48,38,42,38,33,95,71,43,30.22,29.96,21,2,23,0.00
2012-3-15,55,43,33,48,39,31,95,87,59,30.33,30.16,11,1,15,0.33
2012-3-16,50,46,43,47,43,40,94,90,84,30.22,30.08,15,1,18,0.11
2012-3-17,64,51,42,48,44,39,94,80,49,30.36,30.19,7,1,7,0.01
2012-3-18,70,54,44,53,47,42,92,79,52,30.32,30.10,11,1,11,0.00
2012-3-19,78,60,46,58,51,44,96,75,42,30.19,30.09,6,0,6,0.00
2012-3-20,80,64,52,59,53,48,92,69,38,30.29,30.18,9,1,10,0.00
2012-3-21,78,65,53,61,56,50,94,74,42,30.35,30.19,9,1,12,0.00
2012-3-22,82,66,50,62,55,46,95,71,39,30.23,30.01,9,1,12,0.00
2012-3-23,73,64,58,55,45,30,82,54,33,30.17,30.04,15,2,18,0.00
2012-3-24,57,52,43,40,29,23,88,41,30,30.12,30.00,10,1,10,0.02
2012-3-25,55,47,40,48,42,39,95,84,68,30.01,29.74,9,0,12,0.09
2012-3-26,52,43,31,48,26,5,87,53,28,30.16,29.67,24,4,29,0.00
2012-3-27,49,35,24,25,11,4,63,38,21,30.32,30.13,14,2,16,0.00
2012-3-28,57,47,37,47,32,13,82,57,33,30.14,29.51,15,2,20,0.02
2012-3-29,52,44,40,44,37,29,87,76,62,29.99,29.59,20,3,24,0.01
2012-3-30,52,42,32,30,21,14,67,46,24,30.12,29.97,16,2,18,0.00
2012-3-31,48,41,34,36,32,22,89,70,47,30.01,29.88,9,1,10,0.02
2012-4-1,48,42,39,41,38,35,94,84,65,29.89,29.65,8,0,10,0.10
2012-4-2,57,45,38,37,29,13,89,58,22,29.87,29.65,20,2,21,0.10
2012-4-3,59,45,32,26,22,15,66,42,22,29.94,29.75,22,3,22,0.00
2012-4-4,58,47,37,40,29,17,85,52,30,29.77,29.56,23,2,24,0.03
2012-4-5,50,40,32,34,28,24,89,64,43,29.96,29.73,13,2,18,0.00
2012-4-6,57,43,32,29,25,19,84,53,25,30.05,29.91,19,3,19,0.00
2012-4-7,58,46,36,30,25,19,60,45,30,30.07,29.95,16,3,19,0.00
2012-4-8,60,46,34,36,30,26,83,54,32,30.01,29.63,19,3,27,0.00
2012-4-9,51,47,42,38,32,25,71,57,40,29.64,29.56,29,6,33,0.00
2012-4-10,58,48,41,35,30,25,70,51,38,29.80,29.59,22,4,23,0.00
2012-4-11,53,43,32,41,35,29,93,73,48,29.94,29.78,11,1,21,0.02
2012-4-12,59,47,34,41,37,31,93,70,36,30.12,29.93,15,1,17,0.01
2012-4-13,65,50,32,38,33,27,91,55,30,30.20,30.06,19,2,23,0.00
2012-4-14,71,54,33,46,35,28,85,53,25,30.19,29.95,16,1,18,0.00
2012-4-15,70,62,51,59,53,40,91,72,47,29.99,29.90,10,1,13,0.02
2012-4-16,92,73,53,63,57,50,95,62,24,29.96,29.76,13,1,17,0.00
2012-4-17,73,61,47,60,42,32,65,50,31,30.25,29.83,27,4,27,0.00
2012-4-18,57,46,36,38,33,30,86,62,39,30.32,30.11,11,1,13,0.00
2012-4-19,76,53,31,47,39,29,95,63,30,30.11,29.91,9,1,10,0.00
2012-4-20,80,65,50,54,48,42,83,57,27,29.96,29.78,18,2,21,0.00
2012-4-21,76,58,44,60,51,42,96,79,56,29.85,29.62,13,2,22,0.24
2012-4-22,46,42,40,43,39,37,95,89,78,29.89,29.61,13,3,17,0.16
2012-4-23,63,47,38,55,43,37,95,87,73,29.61,29.18,17,2,19,0.48
2012-4-24,56,46,39,40,37,32,85,71,46,29.64,29.28,19,2,22,0.16
2012-4-25,54,46,35,38,35,31,91,67,46,29.91,29.64,18,2,26,0.05
2012-4-26,58,47,30,50,38,28,95,72,44,29.93,29.55,16,1,16,0.07
2012-4-27,50,42,38,45,32,26,83,67,55,30.10,29.60,26,6,30,0.03
2012-4-28,55,42,30,31,24,18,80,51,28,30.23,30.09,19,3,20,0.92
2012-4-29,59,45,30,31,21,14,68,40,21,30.27,30.08,20,3,27,0.15
2012-4-30,62,47,28,42,30,22,89,55,29,30.36,30.09,17,1,17,0.15
2012-5-1,56,51,46,52,48,39,95,89,58,30.12,29.98,7,0,14,0.59
2012-5-2,60,54,51,51,49,48,93,83,72,30.14,30.07,9,1,12,0.01
2012-5-3,64,56,50,57,52,48,93,86,77,30.12,30.00,7,1,15,0.42
2012-5-4,79,64,55,65,58,52,96,82,58,30.07,29.84,16,2,18,0.14
2012-5-5,66,59,50,58,46,28,91,66,33,30.09,29.89,13,2,18,0.00
2012-5-6,72,56,39,54,41,25,92,61,31,30.12,30.02,14,1,15,0.00
2012-5-7,76,59,40,57,45,31,85,61,35,30.13,29.98,12,1,13,0.04
2012-5-8,58,54,49,57,52,47,95,93,85,30.02,29.78,11,1,14,1.06
2012-5-9,69,62,58,61,58,55,95,87,69,29.79,29.57,10,0,12,0.35
2012-5-10,58,53,48,55,47,42,93,79,60,29.76,29.50,24,4,25,0.35
2012-5-11,67,54,44,44,39,34,84,60,33,30.06,29.76,23,3,24,0.06
2012-5-12,81,60,37,53,45,35,95,62,28,30.19,30.06,15,1,20,0.00
2012-5-13,81,66,53,64,55,49,91,68,42,30.15,30.04,10,0,11,0.00
2012-5-14,72,62,57,64,58,53,94,88,72,30.14,30.04,10,0,11,0.17
2012-5-15,66,62,61,65,60,59,96,94,91,30.09,29.92,7,0,10,0.15
2012-5-16,81,66,56,68,60,45,95,84,57,29.97,29.69,27,1,28,0.09
2012-5-17,69,57,47,49,43,40,85,61,36,30.16,29.97,14,2,16,0.05
2012-5-18,76,57,40,52,44,37,95,68,26,30.25,30.12,6,0,7,0.05
2012-5-19,84,63,46,62,51,43,94,70,30,30.20,30.08,8,0,9,0.37
2012-5-20,88,69,52,67,57,45,95,69,39,30.24,30.13,7,0,8,0.00
2012-5-21,76,64,51,66,55,43,95,75,44,30.21,29.99,6,0,10,0.14
2012-5-22,73,66,63,68,64,62,96,92,79,30.00,29.80,4,0,4,0.16
2012-5-23,80,69,62,68,64,60,95,84,58,30.02,29.83,7,0,9,0.01
2012-5-24,81,70,62,70,65,60,95,84,62,30.16,30.02,9,0,12,0.12
2012-5-25,81,70,64,70,65,62,92,84,66,30.18,30.02,11,1,16,0.00
2012-5-26,85,74,62,70,61,50,94,68,35,30.12,30.04,14,1,16,0.00
2012-5-27,85,70,56,68,59,52,91,71,42,30.19,29.96,5,0,7,0.00
2012-5-28,87,74,58,73,63,50,88,70,54,30.00,29.79,6,0,6,0.00
2012-5-29,90,74,67,77,70,65,95,87,66,29.81,29.66,5,0,6,1.28
2012-5-30,80,69,65,68,65,54,96,86,64,29.75,29.67,7,0,7,0.01
2012-5-31,75,64,52,57,53,49,95,69,46,29.97,29.75,16,2,20,0.00
2012-6-1,74,63,49,60,54,46,92,72,57,30.04,29.83,7,0,10,0.00
2012-6-2,64,59,55,60,56,53,96,92,72,29.83,29.70,6,0,9,0.42
2012-6-3,71,60,54,61,56,53,100,88,58,29.75,29.61,6,0,9,0.42
2012-6-4,59,55,53,55,52,49,96,91,76,29.84,29.63,6,0,7,0.22
2012-6-5,66,57,49,57,52,47,94,84,64,29.93,29.83,6,0,9,0.21
2012-6-6,71,58,49,59,52,47,96,84,58,30.00,29.92,10,0,12,0.02
2012-6-7,74,60,48,60,54,46,96,81,52,29.99,29.90,10,0,12,0.00
2012-6-8,82,66,50,63,56,49,97,74,38,29.93,29.75,18,1,18,0.02
2012-6-9,74,63,55,65,60,53,97,89,67,29.96,29.82,12,0,14,0.06
2012-6-10,85,70,56,69,64,55,97,81,49,30.12,29.96,6,0,7,0.00
2012-6-11,82,72,65,69,63,55,85,72,59,30.19,30.11,12,1,17,0.00
2012-6-12,70,66,62,67,62,56,96,86,71,30.12,29.86,11,1,13,0.57
2012-6-13,80,68,59,66,60,55,96,76,47,30.12,29.85,9,1,17,0.06
2012-6-14,80,66,53,60,55,51,95,72,43,30.25,30.12,7,0,9,0.00
2012-6-15,82,65,50,64,56,48,95,75,35,30.32,30.22,5,0,5,0.00
2012-6-16,84,69,55,64,58,52,94,72,42,30.32,30.15,9,0,10,0.00
2012-6-17,80,70,62,67,61,57,86,74,56,30.19,30.00,7,0,12,0.00
2012-6-18,74,65,58,63,57,53,88,76,63,30.11,30.02,9,1,11,0.00
2012-6-19,81,70,61,71,64,56,86,80,68,30.11,29.98,10,0,12,0.00
2012-6-20,95,80,67,77,71,64,95,75,50,30.02,29.89,15,1,18,0.00
2012-6-21,94,80,67,74,70,66,96,74,42,29.92,29.73,13,1,16,0.00
2012-6-22,88,77,68,72,67,59,96,72,50,29.81,29.73,12,2,14,0.00
2012-6-23,84,71,60,66,61,57,92,72,49,29.98,29.81,10,1,15,0.00
2012-6-24,84,70,54,65,59,53,96,72,38,30.00,29.84,7,0,10,0.00
2012-6-25,76,66,56,65,60,50,93,81,66,29.85,29.66,20,1,21,0.00
2012-6-26,71,62,53,59,54,49,93,77,60,29.73,29.65,16,2,22,0.04
2012-6-27,80,68,56,58,55,50,94,67,38,29.75,29.63,24,3,27,0.02
2012-6-28,88,72,54,64,58,52,94,66,37,29.78,29.65,11,1,14,0.00
2012-6-29,92,76,64,76,64,52,95,71,32,29.67,29.57,18,1,22,0.03
2012-6-30,90,75,61,66,61,57,91,66,36,29.73,29.65,14,2,16,0.00
2012-7-1,89,76,62,66,61,51,93,64,32,29.86,29.71,15,2,20,0.00
2012-7-2,87,73,61,67,61,56,96,70,36,29.91,29.84,15,1,17,0.00
2012-7-3,88,73,59,68,61,53,95,71,36,29.95,29.76,13,0,13,0.00
2012-7-4,90,77,67,72,69,64,97,78,50,29.80,29.65,14,1,16,0.08
2012-7-5,86,75,66,70,66,62,95,74,51,29.88,29.70,10,1,10,0.00
2012-7-6,93,75,59,74,66,58,96,76,43,29.94,29.79,7,0,7,0.00
2012-7-7,83,74,65,70,67,63,95,78,58,29.83,29.76,12,1,16,0.00
2012-7-8,89,74,63,72,62,56,95,69,35,29.89,29.80,18,1,21,0.00
2012-7-9,86,70,57,60,55,49,94,64,32,29.99,29.89,11,1,13,0.00
2012-7-10,87,68,52,62,56,50,95,70,34,30.08,29.96,10,0,12,0.00
2012-7-11,91,72,58,64,59,47,95,68,26,30.17,30.07,6,0,7,0.00
2012-7-12,93,77,65,69,64,60,89,68,36,30.17,30.05,6,0,7,0.00
2012-7-13,94,78,66,71,65,60,90,67,36,30.18,30.07,6,0,9,0.00
2012-7-14,92,77,67,74,68,64,95,76,49,30.19,30.03,11,0,14,0.17
2012-7-15,84,74,66,74,70,65,96,87,64,30.09,29.88,8,0,9,0.23
2012-7-16,90,78,67,74,69,66,97,78,51,29.88,29.75,16,1,16,0.00
2012-7-17,99,83,69,77,70,66,92,68,40,29.81,29.61,18,1,18,0.30
2012-7-18,88,77,70,75,71,58,96,82,62,29.93,29.71,7,0,10,0.01
2012-7-19,88,72,61,66,59,53,84,64,44,30.00,29.89,8,0,9,0.00
2012-7-20,75,68,61,64,58,53,90,70,59,30.06,29.98,5,0,6,0.00
2012-7-21,87,70,57,66,58,51,95,69,30,30.09,29.99,7,0,7,0.00
2012-7-22,91,76,65,68,63,57,83,65,43,30.12,30.00,10,0,11,0.00
2012-7-23,89,76,69,74,68,64,92,77,59,30.04,29.69,10,0,11,0.27
2012-7-24,88,75,65,73,66,53,96,76,49,29.79,29.59,18,1,21,0.26
2012-7-25,85,70,56,62,57,53,92,65,39,29.90,29.76,13,1,15,0.26
2012-7-26,88,73,66,75,66,60,93,79,61,29.76,29.54,5,0,7,0.06
2012-7-27,83,74,68,72,69,66,94,86,67,29.89,29.62,5,0,7,0.10
2012-7-28,77,71,65,72,68,63,95,90,77,29.95,29.88,4,0,4,0.17
2012-7-29,83,71,66,69,67,63,96,87,58,30.03,29.93,1,0,1,0.19
2012-7-30,86,74,63,73,67,61,96,80,59,30.09,29.99,12,1,12,0.00
2012-7-31,86,75,67,70,66,63,89,76,54,30.05,29.88,11,1,13,0.00
2012-8-1,86,74,66,72,68,62,91,81,59,29.88,29.78,9,0,12,0.00
2012-8-2,91,76,65,70,67,63,95,75,45,29.87,29.81,9,0,12,0.00
2012-8-3,94,79,67,74,69,65,95,74,44,30.06,29.86,10,1,12,0.00
2012-8-4,96,81,68,76,71,66,94,74,47,30.16,30.06,10,0,12,0.00
2012-8-5,91,79,72,77,73,69,94,83,63,30.13,29.83,11,1,14,0.68
2012-8-6,81,72,64,70,62,58,95,74,49,30.03,29.93,13,2,15,0.00
2012-8-7,87,70,56,67,60,54,95,74,42,30.03,29.91,9,0,9,0.00
2012-8-8,88,68,60,70,63,58,96,84,48,29.99,29.89,6,0,7,0.00
2012-8-9,92,79,71,74,70,67,93,75,48,29.93,29.79,9,0,10,0.00
2012-8-10,76,71,67,73,69,64,95,92,85,29.86,29.75,0,0,0,0.53
2012-8-11,84,74,67,76,70,65,97,90,75,29.86,29.77,0,0,0,0.53
2012-8-12,85,73,65,71,66,62,95,79,55,29.92,29.83,6,0,7,0.03
2012-8-13,80,71,64,67,64,61,95,81,60,29.98,29.91,11,1,13,0.00
2012-8-14,79,69,60,69,64,58,96,84,67,29.95,29.84,4,0,5,0.00
2012-8-15,82,72,65,70,67,63,95,85,60,29.90,29.81,7,0,7,0.14
2012-8-16,85,72,64,67,63,59,94,75,44,29.92,29.81,13,1,15,0.10
2012-8-17,86,68,60,73,63,58,95,86,58,29.85,29.73,17,0,19,0.13
2012-8-18,77,67,60,62,58,52,96,74,45,29.94,29.83,13,1,14,0.13
2012-8-19,79,64,50,60,54,48,94,73,47,30.00,29.88,5,0,6,0.00
2012-8-20,81,63,52,65,57,50,96,83,52,29.92,29.82,9,0,14,0.04
2012-8-21,81,67,55,63,57,53,96,73,40,30.09,29.91,14,1,16,0.04
2012-8-22,86,67,52,66,57,50,95,73,44,30.15,30.06,6,0,7,0.01
2012-8-23,86,70,58,67,60,56,96,75,40,30.14,30.06,9,0,11,0.00
2012-8-24,88,70,56,68,60,54,95,75,40,30.19,30.11,5,0,6,0.00
2012-8-25,90,73,60,69,63,58,95,74,43,30.27,30.17,10,0,10,0.00
2012-8-26,89,75,64,67,62,57,89,66,41,30.31,30.16,11,0,11,0.00
2012-8-27,84,73,63,75,67,58,93,82,64,30.18,29.89,10,0,12,0.48
2012-8-28,83,73,65,71,66,58,96,80,49,29.92,29.77,18,1,20,0.93
2012-8-29,78,65,54,58,52,46,90,66,37,30.02,29.92,10,1,11,0.00
2012-8-30,83,65,49,63,55,47,95,73,46,30.08,29.97,14,1,15,0.00
2012-8-31,92,72,54,69,61,52,95,73,41,30.00,29.79,14,1,18,0.00
2012-9-1,85,74,64,68,65,58,91,75,50,30.05,29.87,7,0,7,0.00
2012-9-2,85,68,56,63,58,53,95,72,40,30.11,30.02,5,0,7,0.00
2012-9-3,83,67,54,64,58,52,95,75,47,30.16,30.08,17,0,17,0.00
2012-9-4,79,72,67,72,66,59,91,82,74,30.09,29.72,9,0,12,0.04
2012-9-5,77,72,63,71,67,61,94,85,74,29.84,29.67,18,1,18,0.12
2012-9-6,84,71,60,71,65,58,96,84,61,29.90,29.79,7,0,9,0.00
2012-9-7,86,73,65,71,66,63,96,80,49,29.93,29.78,5,0,6,0.00
2012-9-8,85,71,60,74,66,59,95,87,56,29.80,29.47,19,1,25,0.45
2012-9-9,75,63,52,62,55,51,98,79,52,29.90,29.75,12,1,12,0.00
2012-9-10,68,58,49,52,48,43,93,71,47,30.13,29.90,13,1,15,0.00
2012-9-11,73,55,41,53,46,39,98,74,39,30.27,30.13,10,0,11,0.00
2012-9-12,82,62,46,61,53,44,96,76,42,30.35,30.25,4,0,7,0.00
2012-9-13,84,66,52,64,57,50,95,76,45,30.34,30.22,4,0,6,0.00
2012-9-14,83,68,56,64,59,54,95,75,48,30.24,30.02,10,0,12,0.00
2012-9-15,70,62,53,58,52,48,93,74,47,30.13,30.05,15,2,23,0.08
2012-9-16,71,56,45,53,47,42,96,74,37,30.12,30.01,14,1,15,0.00
2012-9-17,80,61,45,60,52,43,95,76,48,30.09,29.97,5,0,6,0.00
2012-9-18,70,66,60,68,62,55,96,90,78,29.97,29.51,17,1,22,2.67
2012-9-19,68,57,46,58,49,43,92,76,45,30.20,29.67,24,2,24,0.41
2012-9-20,69,54,40,54,47,39,96,81,55,30.25,30.08,11,0,13,0.03
2012-9-21,74,61,50,62,55,48,95,82,61,30.10,29.97,12,1,13,0.00
2012-9-22,75,62,52,65,58,50,95,86,70,29.97,29.73,16,1,19,0.01
2012-9-23,66,56,45,58,47,40,94,76,42,30.12,29.82,13,1,21,0.00
2012-9-24,64,50,40,48,43,38,95,79,43,30.16,30.05,10,0,13,0.00
2012-9-25,73,57,42,53,47,40,94,72,45,30.12,30.03,9,0,9,0.00
2012-9-26,68,62,56,63,58,50,94,87,77,30.06,29.97,9,0,10,0.00
2012-9-27,68,59,48,60,52,45,95,80,53,30.22,30.01,10,1,10,0.00
2012-9-28,54,51,48,53,50,45,96,94,90,30.22,29.99,4,0,5,0.00
2012-9-29,60,55,53,57,53,52,96,94,85,30.00,29.88,10,0,10,0.00
2012-9-30,61,55,52,57,53,50,96,93,83,29.91,29.72,6,0,8,0.00
2012-10-1,65,57,51,58,53,50,94,86,71,29.95,29.68,19,2,25,0.00
2012-10-2,62,57,51,58,55,49,96,92,83,30.03,29.94,3,0,7,0.00
2012-10-3,68,63,59,65,61,57,96,94,91,30.12,30.00,2,0,3,0.00
2012-10-4,68,64,55,67,63,54,98,96,95,30.13,30.02,4,0,5,0.00
2012-10-5,76,63,54,65,59,52,99,89,61,30.04,29.88,7,0,10,0.00
2012-10-6,65,57,47,62,53,41,96,87,70,29.99,29.70,15,1,19,0.09
2012-10-7,56,49,43,46,42,39,92,78,60,30.09,29.99,10,0,12,0.05
2012-10-8,56,48,41,45,42,39,94,84,58,30.29,30.07,10,0,10,0.01
2012-10-9,61,49,38,51,45,36,95,86,67,30.28,30.09,5,0,5,0.00
2012-10-10,58,53,47,56,50,41,94,87,78,30.09,29.74,17,1,20,0.09
2012-10-11,58,47,38,42,39,35,91,75,46,30.15,29.88,15,2,17,0.00
2012-10-12,54,45,32,43,35,24,93,71,42,30.42,30.00,16,2,19,0.03
2012-10-13,54,41,26,35,29,24,94,67,43,30.50,30.21,7,0,11,0.03
2012-10-14,66,54,45,56,48,33,95,81,55,30.23,29.82,13,1,13,0.42
2012-10-15,66,61,52,61,56,46,92,84,72,29.83,29.59,14,1,16,0.05
2012-10-16,55,48,37,46,38,34,92,71,57,29.93,29.66,22,3,22,0.00
2012-10-17,62,44,32,44,38,30,95,79,47,30.02,29.91,7,0,7,0.00
2012-10-18,69,52,35,51,44,34,96,76,47,30.04,29.92,10,1,14,0.00
2012-10-19,63,58,55,62,56,50,96,92,77,29.99,29.63,9,0,9,2.29
2012-10-20,69,58,44,61,54,41,97,88,65,29.76,29.59,10,0,13,0.13
2012-10-21,63,52,40,49,44,38,96,76,50,29.95,29.76,20,2,20,0.00
2012-10-22,65,56,50,50,46,43,83,70,55,30.06,29.94,21,4,21,0.00
2012-10-23,57,50,41,51,46,38,94,87,72,30.14,30.05,3,0,4,0.01
2012-10-24,54,52,49,49,44,40,92,75,65,30.20,30.13,4,0,4,0.00
2012-10-25,61,56,51,55,51,47,88,85,80,30.25,30.18,10,1,12,0.00
2012-10-26,63,59,57,56,54,52,88,84,78,30.21,30.11,6,0,10,0.00
2012-10-27,64,58,51,57,54,49,94,85,74,30.12,29.96,5,0,5,0.00
2012-10-28,62,54,50,52,48,45,95,82,56,29.98,29.80,8,1,12,0.00
2012-10-29,65,57,52,59,52,47,93,83,76,29.80,29.03,24,5,24,0.13
2012-10-30,66,60,51,58,51,46,89,75,58,29.47,29.09,20,3,24,0.13
2012-10-31,52,48,45,50,42,39,92,81,65,29.53,29.40,14,1,15,0.06
2012-11-1,49,46,44,46,42,39,92,88,81,29.56,29.49,6,0,8,0.05
2012-11-2,49,45,41,42,38,35,93,79,65,29.71,29.55,17,2,17,0.01
2012-11-3,47,42,38,36,34,32,83,73,61,29.92,29.71,15,3,22,0.00
2012-11-4,44,40,37,33,31,27,81,71,63,30.02,29.92,20,2,22,0.00
2012-11-5,43,36,29,29,24,19,73,62,40,30.18,30.00,12,1,14,0.00
2012-11-6,42,31,22,25,21,18,89,69,43,30.26,30.15,10,0,10,0.00
2012-11-7,37,32,22,28,24,19,88,70,52,30.18,29.93,14,1,17,0.00
2012-11-8,46,39,35,31,28,22,72,64,54,29.96,29.84,14,2,16,0.00
2012-11-9,50,40,31,39,30,23,83,66,43,30.16,29.96,16,2,20,0.00
2012-11-10,55,45,38,42,38,34,91,77,54,30.40,30.16,6,0,6,0.00
2012-11-11,65,53,42,49,44,35,83,70,54,30.42,30.34,13,1,14,0.00
2012-11-12,68,58,50,57,50,45,86,75,57,30.38,30.07,21,2,23,0.01
2012-11-13,63,43,36,58,37,29,94,79,61,30.48,30.03,21,2,33,0.71
2012-11-14,46,35,27,30,27,24,91,72,49,30.61,30.47,11,1,12,0.00
2012-11-15,41,31,25,30,25,22,90,79,62,30.51,30.33,4,0,6,0.00
2012-11-16,41,30,24,33,26,21,93,86,71,30.51,30.34,5,0,6,0.00
2012-11-17,46,32,23,35,27,20,94,83,64,30.70,30.50,5,0,6,0.01
2012-11-18,47,32,23,34,26,21,100,80,51,30.73,30.60,4,0,5,0.01
2012-11-19,49,32,22,35,26,19,93,79,49,30.61,30.28,5,0,6,0.00
2012-11-20,46,33,24,34,28,22,93,82,60,30.28,30.14,5,0,5,0.00
2012-11-21,52,36,27,38,29,23,94,77,40,30.27,30.17,6,0,6,0.00
2012-11-22,53,35,24,37,28,22,93,77,47,30.28,30.09,5,0,6,0.00
2012-11-23,56,42,26,43,34,24,94,76,48,30.09,29.62,20,1,20,0.03
2012-11-24,45,37,31,38,26,22,75,65,54,29.76,29.64,24,4,25,0.00
2012-11-25,36,32,28,29,25,20,87,76,64,29.88,29.76,15,2,17,0.00
2012-11-26,43,36,28,30,28,23,87,73,56,30.24,29.86,19,2,21,0.00
2012-11-27,38,32,26,33,29,23,91,87,80,30.31,30.22,3,0,4,0.01
2012-11-28,39,32,26,31,26,23,94,80,55,30.24,30.14,12,0,13,0.00
2012-11-29,45,34,30,29,27,24,86,76,46,30.27,30.16,12,1,19,0.00
2012-11-30,36,27,24,30,17,12,86,67,54,30.54,30.22,14,2,16,0.00
2012-12-1,35,27,22,33,23,16,92,86,70,30.59,30.41,5,0,5,0.00
2012-12-2,47,43,35,44,40,33,100,91,85,30.42,30.01,13,2,15,0.23
2012-12-3,49,44,30,45,40,28,95,87,78,30.27,30.02,16,1,16,0.00
2012-12-4,56,46,30,52,44,28,100,91,86,30.26,29.84,16,2,21,0.02
2012-12-5,55,42,29,52,34,17,92,74,56,30.26,29.86,24,3,30,0.10
2012-12-6,35,28,22,23,19,18,88,72,57,30.41,30.25,11,1,18,0.00
2012-12-7,38,32,22,34,29,19,93,87,72,30.25,30.04,12,0,13,0.19
2012-12-8,43,39,36,42,38,34,100,95,93,30.04,29.83,9,0,12,0.19
2012-12-9,45,40,35,43,34,32,96,80,64,30.28,30.02,14,1,15,0.09
2012-12-10,51,43,35,50,42,33,99,94,85,30.05,29.49,13,1,19,0.38
2012-12-11,42,36,28,38,30,24,90,78,65,30.21,29.65,18,2,22,0.00
2012-12-12,41,29,22,31,24,19,93,83,63,30.43,30.20,8,0,10,0.00
2012-12-13,42,30,23,32,26,21,93,83,60,30.48,30.28,6,0,6,0.00
2012-12-14,46,34,22,34,28,20,94,79,57,30.28,30.13,13,1,15,0.00
2012-12-15,39,32,27,33,25,18,91,76,63,30.35,30.20,10,1,11,0.00
2012-12-16,35,31,27,32,26,19,92,80,71,30.26,29.98,10,1,13,0.02
2012-12-17,37,35,33,37,34,31,100,94,92,29.98,29.71,4,0,5,0.34
2012-12-18,43,40,36,42,39,35,96,95,85,29.71,29.44,18,1,23,0.69
2012-12-19,43,39,34,36,33,29,87,78,69,30.12,29.56,22,3,23,0.00
2012-12-20,39,34,25,34,28,22,91,81,70,30.24,29.83,11,1,14,0.04
2012-12-21,50,42,36,46,37,31,92,84,74,29.84,28.97,22,3,31,0.54
2012-12-22,39,33,29,32,24,21,80,72,64,29.76,29.18,27,5,30,0.00
2012-12-23,36,31,29,28,24,22,82,75,62,29.88,29.75,18,2,24,0.00
2012-12-24,37,32,27,28,24,21,86,72,57,30.11,29.88,15,1,20,0.00
2012-12-25,32,28,25,27,23,19,89,82,76,30.32,29.96,8,1,9,0.03
2012-12-26,26,24,20,24,19,15,91,80,74,30.38,29.82,9,1,11,0.00
2012-12-27,33,29,25,31,26,21,100,91,86,29.83,29.53,18,2,22,0.00
2012-12-28,32,28,23,26,24,20,88,84,78,30.09,29.83,14,2,18,0.02
2012-12-29,29,26,20,26,23,17,99,91,87,30.06,29.60,6,0,6,0.02
2012-12-30,28,22,19,26,17,12,93,79,67,30.17,29.60,29,5,29,0.00
2012-12-31,35,27,16,27,21,12,88,80,65,30.15,29.78,12,0,13,0.03
2013-1-1,36,27,10,29,19,4,82,70,60,30.00,29.76,22,3,24,0.03